Location: Llanfihangel-Ystrad
(52.1833°N, 4.1667°W)
Time: 00:45:12
(UTC+00:00)

NOSS 3-1 (C) - Pass Details

Date: 17 February 2020
Orbit: 759 x 1449 km, 63.4° (Epoch: 26 March)

Event Time Altitude Azimuth Distance (km) Brightness Sun altitude
Exits shadow 04:36:47 48° 222° (SW) 1,636 4.2 -26.9°
Drops below altitude 10° 04:44:13 10° 166° (SSE) 3,471 6.4 -25.8°
Sets 04:47:21 0° 162° (SSE) 4,491 7.0 -25.3°
